Retour au catalogue

STARLINK-6156

ActifCommunicationsVLEO
NORAD 56374·PAYLOAD·🇺🇸 United States

Lancé May 4, 2023 depuis Cape Canaveral Space Force Station

Loading…

Prochains Passages (prochaines 24 heures)

TLE

FraisSource: CelesTrak SupGP

Époque: Sep 15, 2026, 01:27 UTC

1 56374C 23061A   26258.06090278 -.00024766  00000+0 -89723-3 0  2588
2 56374  43.0017 208.8595 0000498 278.5083 188.1537 15.27583553    11

Suivez STARLINK-6156 en temps réel avec AllMySat

Download on the App Store